Regional Weather Roundup
Issued by NWS

Home | Current Version | Previous Version | Text Only | Print | Product List | Glossary Off
Versions: 1 2 3 4 5 6 7 8 9 10 11 12 13 14 15 16 17 18 19 20 21 22 23 24 25 26 27 28 29 30 31 32 33 34 35 36 37 38 39 40 41 42 43 44 45 46 47 48 49 50

009
ASUS43 KLSX 201057
RWRMO

WEATHER SUMMARY FOR MISSOURI
NATIONAL WEATHER SERVICE SPRINGFIELD MO
600 AM CDT SUN AUG 20 2017

NOTE: "FAIR" INDICATES FEW OR NO CLOUDS BELOW 12,000 FEET WITH NO
       SIGNIFICANT WEATHER AND/OR OBSTRUCTIONS TO VISIBILITY.
       CURRENT SKY AND/OR WEATHER CONDITIONS ARE NOT AVAILABLE FOR
       CHILLICOTHE AND FARMINGTON.

MOZ001>031-035>038-043-044-053-054-201200-
...NORTHERN AND WESTERN MISSOURI...

CITY           SKY/WX    TMP DP  RH WIND       PRES   REMARKS
KANSAS CTY INT LGT RAIN  68  67  96 NE9       30.00R
LEE`S SUMMIT   CLOUDY    74  66  76 N29G41    30.01R
ST JOSEPH      CLOUDY    68  67  96 S8        29.95F THUNDER
CHILLICOTHE      N/A     69  69 100 VRB5      30.04R

$$
MOZ066>068-077>081-088>096-101>105-201200-
...SOUTHWEST MISSOURI...

CITY           SKY/WX    TMP DP  RH WIND       PRES   REMARKS
SPRINGFIELD    CLOUDY    75  74  96 S10       29.98F
JOPLIN         CLOUDY    81  75  82 SW13      29.95F

$$
MOZ032>034-039>042-045>050-055>058-069>072-201200-
...CENTRAL MISSOURI...

CITY           SKY/WX    TMP DP  RH WIND       PRES   REMARKS
COLUMBIA       NOT AVBL
JEFFERSON CITY CLOUDY    69  69 100 SE6       29.96S
ROLLA          CLEAR     70  70 100 S9        30.00S
SEDALIA        CLOUDY    76  75  97 S6        29.96S
WARRENSBURG    CLOUDY    73  70  88 S5        29.94R

$$
MOZ051-052-059>065-201200-
...EAST CENTRAL MISSOURI...

CITY           SKY/WX    TMP DP  RH WIND       PRES   REMARKS
ST LOUIS INTL  MOCLDY    75  70  84 CALM      29.99S

$$
MOZ072>076-082>087-097>100-106>115-201200-
...SOUTH CENTRAL AND SOUTHEAST MISSOURI...

CITY           SKY/WX    TMP DP  RH WIND       PRES   REMARKS
CAPE GIRARDEAU FOG       67  66  97 NE6       30.00R VSB 1/4
POPLAR BLUFF   FOG       69  69 100 CALM      30.00S VSB 1/2
WEST PLAINS    CLOUDY    72  69  90 CALM      30.03F

$$



USA.gov is the U.S. government's official web portal to all federal, state and local government web resources and services.